Location: Great River
(40.7212°N, 73.1576°W)
Time: 14:21:44
(UTC+00:00)

Daily predictions for brighter satellites

Satellite Brightness Start Highest point End
(mag) Time Altitude Azimuth Time Altitude Azimuth Time Altitude Azimuth
FALCON 9 R/B 3.8 23:31:58 10° WSW 23:37:37 59° SSE 23:58:27 10° E
Cosmos 1452 Rocket 3.6 23:47:07 10° NNW 23:52:26 86° ENE 23:57:43 10° SSE
USA 32 4.2 23:47:43 10° SSE 23:52:45 51° E 23:57:48 10° NNE
